Content
SEND FEEDBACK

Daily
Averages
Monthly
Summary
Argentina

RIO GALLEGOS, ARGENTINA


Home > South America > Argentina
Elevation: 62 feet     Latitude: 51 37S     Longitude: 069 17W

WEATHER
 
SELECT A DAY
Number of Records: 161,148;   Date Range: 6/30/96 - 8/31/14
 
SHARE

PRINT THIS DATA

[ ← Previous Day ]
WEATHER ALMANAC - FEBRUARY 13, 2013
[ Next Day → ]
[ °C ]   °F
Weather ElementAverageHighLow
Temperature56.4 °F64.4 °F (3:00 pm)46.4 °F (7:00 am)
Dewpoint33.4 °F41 °F (1:00 am)28 °F (3:00 pm)
Humidity42.4 %67 % (1:00 am)15 % (3:00 pm)
Barometer29.36 in29.42 in (12:00 pm)29.24 in (1:00 am)
Wind Speed17.3 mph26.5 mph (11:00 am)
Wind Gust35.7 mph (11:00 am)
Weather ElementAverage
Visibility8.8 mi
Wind DirectionWSW (259.2 °)

Weather ElementTotal
Precipitation---
Heating Degree Days9.6 (Base 65)
Growing Degree Days5.4 (Base 50)
Averaged from 26 records on February 13, 2013
WEATHER CONDITIONS BREAKOUT
WIND DIRECTION BREAKOUT
WEATHER BY HOUR - FEBRUARY 13, 2013
[ °C ]   °F
Local TimeTemperatureDewpointHumidityBarometerVisibilityWind DirectionWind SpeedGust SpeedPrecipitationEventsConditions
1:00 AM51.8 °F41.0 °F67 %29.24 in6.2 miNorth (360°)16.1 mphScattered Clouds
2:00 AM51.8 °F37.4 °F58 %29.24 in6.2 miNorth (360°)17.3 mphScattered Clouds
3:00 AM50.0 °F35.0 °F44 %29.26 in19.0 miWest (270°)15.0 mphClear
3:00 AM48.2 °F33.8 °F58 %29.30 in6.2 miWest (270°)20.7 mph33.4 mphScattered Clouds
4:00 AM48.2 °F35.6 °F62 %29.27 inWest (270°)16.1 mphClear
5:00 AM48.2 °F33.8 °F58 %29.27 inWest (270°)18.4 mphClear
7:00 AM46.4 °F33.8 °F62 %29.33 inWest (270°)18.4 mphClear
8:00 AM48.2 °F35.6 °F62 %29.36 inWest (270°)17.3 mphClear
9:00 AM51.0 °F35.0 °F41 %29.39 in19.0 miWSW (250°)21.9 mphClear
9:00 AM51.8 °F33.8 °F50 %29.39 inWSW (250°)21.9 mphClear
10:00 AM53.6 °F33.8 °F47 %29.39 inWest (270°)23.0 mphClear
11:00 AM57.2 °F32.0 °F38 %29.39 in6.2 miWSW (250°)26.5 mph35.7 mphPartly Cloudy
12:00 PM59.0 °F32.0 °F36 %29.42 in6.2 miWSW (250°)24.2 mphPartly Cloudy
1:00 PM62.6 °F28.4 °F27 %29.42 in6.2 miWSW (250°)26.5 mph34.5 mphScattered Clouds
2:00 PM62.6 °F32.0 °F32 %29.39 in6.2 miWSW (250°)20.7 mph32.2 mphScattered Clouds
3:00 PM64.0 °F28.0 °F15 %29.41 in19.0 miWSW (250°)20.7 mphPartly Cloudy
3:00 PM64.4 °F28.4 °F26 %29.39 in6.2 miWSW (250°)20.7 mphScattered Clouds
4:00 PM64.4 °F28.4 °F26 %29.39 in6.2 miWSW (250°)18.4 mphMostly Cloudy
5:00 PM64.4 °F30.2 °F28 %29.39 in6.2 miWSW (250°)17.3 mphScattered Clouds
6:00 PM62.6 °F30.2 °F30 %29.39 in6.2 miWSW (250°)15.0 mphMostly Cloudy
7:00 PM60.8 °F28.4 °F29 %29.39 in6.2 miSW (230°)8.1 mphMostly Cloudy
8:00 PM60.8 °F32.0 °F34 %29.39 in6.2 miWest (270°)11.5 mphMostly Cloudy
9:00 PM59.0 °F35.0 °F28 %29.42 in19.0 miWest (270°)15.0 mphOvercast
9:00 PM59.0 °F35.6 °F42 %29.42 in6.2 miWest (270°)15.0 mphMostly Cloudy
10:00 PM57.2 °F39.2 °F51 %29.39 in6.2 miNNW (340°)4.6 mphMostly Cloudy
11:00 PM59.0 °F41.0 °F51 %29.36 in6.2 miCalmMostly Cloudy
Hourly data recorded from SAWG, located miles away from Rio Gallegos, Argentina







STORIES FROM OUR PARTNERS